Wind_Speed
18 18 17 17 17 15 15 14 13 13 12 10 10 9 9 8 7 6 6 6 6 5 5 6 7 7 7 7 8 7 7 6 6 7 7 7 6 6 8 8 8 8 8 8 8 8 7 8 8
18 17 17 18 17 16 16 16 16 15 13 12 11 11 10 9 8 8 7 6 6 6 6 8 8 8 8 8 8 7 7 6 7 7 7 7 6 6 8 8 8 8 8 7 7 7 7 7 7
17 17 17 17 18 17 18 18 17 15 14 13 12 12 11 10 9 8 8 7 7 7 7 8 8 8 8 8 8 8 7 7 7 7 7 6 7 8 8 8 7 7 7 7 6 6 7 7 6
17 18 18 18 18 18 19 19 18 17 15 14 13 13 11 10 10 9 9 8 7 7 8 8 8 8 8 8 8 8 8 8 8 8 7 7 8 8 8 8 8 7 7 6 6 6 6 6 5
18 19 18 18 19 19 19 19 19 18 17 15 14 13 12 11 9 9 9 8 7 7 8 8 8 8 8 8 8 8 8 8 7 7 7 8 8 8 8 7 7 7 7 7 6 6 5 6 5
19 19 19 19 20 20 20 20 20 19 18 15 14 13 12 11 10 10 9 9 8 8 8 7 7 7 8 8 7 8 8 7 7 7 7 7 8 8 8 7 7 7 7 6 6 6 6 5 4
19 19 19 19 20 20 21 21 20 19 17 17 15 14 13 12 11 11 10 10 9 9 8 8 8 8 8 8 7 7 7 7 7 7 7 7 7 8 8 8 7 7 6 6 6 6 6 5 4
18 18 19 19 20 20 21 21 21 19 18 17 17 16 15 13 13 12 11 11 10 10 10 9 8 8 8 8 8 8 8 7 7 8 7 7 7 8 7 7 7 7 6 6 5 5 5 5 4
16 18 18 19 20 20 21 22 21 20 19 18 17 17 16 14 13 13 12 12 11 11 10 10 9 9 8 8 8 8 8 7 7 7 8 7 7 7 8 7 7 6 6 5 5 5 4 4 3
15 16 18 19 19 19 20 21 21 19 19 18 17 17 16 15 13 13 13 13 13 12 12 11 10 9 9 9 8 7 8 8 7 8 8 8 8 8 8 7 7 6 5 5 4 4 4 3 3
15 16 17 18 18 18 19 20 20 19 19 18 17 16 15 15 15 14 13 13 13 13 12 11 11 10 10 9 8 7 7 7 7 8 8 8 8 7 7 6 5 5 5 5 5 4 4 3 3
14 15 16 17 17 18 18 19 19 19 19 17 17 16 16 15 14 14 14 13 13 13 12 12 10 10 10 9 9 8 7 7 7 7 8 8 8 7 6 6 5 5 5 5 5 4 4 3 3
11 13 14 15 16 17 17 18 18 18 18 17 16 16 15 14 14 14 14 13 13 12 12 11 10 10 10 9 9 8 7 7 7 8 8 7 7 7 6 5 5 5 5 5 4 4 3 2 2
10 11 12 13 14 15 17 17 17 17 17 17 16 15 15 14 14 14 14 13 13 12 11 11 10 9 9 9 8 8 8 8 8 7 7 7 7 6 6 5 4 4 5 4 4 3 3 2 1
7 8 10 11 12 13 14 15 15 15 15 15 15 15 15 13 13 13 13 13 12 12 11 10 9 8 8 8 8 8 8 7 7 7 7 6 6 5 5 4 4 4 4 4 3 3 2 1 1
6 7 8 9 11 12 12 13 13 12 13 14 14 14 14 14 13 13 13 12 12 11 11 10 9 8 7 7 7 8 7 7 7 6 6 6 5 4 3 3 4 4 3 2 2 2 1 1 1
4 5 6 8 9 10 10 10 10 10 10 11 12 13 13 13 13 13 13 12 12 11 11 10 9 8 8 7 7 7 7 7 7 6 6 5 5 4 3 3 3 3 2 2 2 2 2 2 2
2 3 3 5 6 7 8 8 8 8 8 8 10 11 12 12 12 13 12 12 12 11 10 10 9 8 8 7 7 6 6 6 6 6 6 5 5 4 3 3 2 2 1 1 1 2 2 2 2
4 2 2 3 3 5 6 6 6 6 6 6 7 8 9 10 11 11 12 11 11 11 10 9 9 8 8 7 6 6 6 6 6 5 6 6 4 3 3 3 2 1 1 1 1 1 2 2 2
6 4 2 1 3 5 5 5 5 6 6 4 4 6 6 8 8 9 10 10 10 10 10 9 8 7 6 6 6 6 6 6 5 4 4 4 3 3 3 3 2 1 1 1 1 1 1 2 3
9 7 5 4 4 4 4 4 5 5 5 5 4 4 5 6 7 8 9 9 9 9 8 8 7 7 7 7 6 6 6 5 5 4 3 2 1 1 1 1 1 1 2 2 2 2 2 3 3
11 9 8 7 6 5 5 4 5 5 4 5 4 3 3 4 5 6 7 7 7 7 8 7 7 6 7 7 6 6 5 5 4 4 3 2 1 0 1 0 0 1 2 2 3 3 3 3 3
14 13 12 11 9 8 6 6 5 4 4 4 3 3 3 3 4 5 6 6 6 6 6 6 6 6 6 6 6 5 5 5 4 3 3 2 2 1 1 1 1 1 2 2 2 3 3 3 3
17 16 15 14 12 11 9 9 6 4 3 4 3 2 2 3 4 4 5 5 5 4 4 5 5 5 5 4 4 4 4 3 3 3 3 3 3 2 2 2 1 1 2 2 2 2 3 4 4
20 18 17 15 14 12 11 10 7 6 4 4 4 3 2 2 3 4 5 5 4 3 3 3 3 3 3 3 3 3 3 3 3 3 3 3 3 3 3 2 2 2 2 3 3 3 3 4 5
21 20 19 18 16 14 13 12 8 7 6 5 5 5 4 4 4 5 5 5 5 4 4 4 3 2 2 2 1 2 3 3 3 3 3 3 3 3 3 2 2 2 3 3 3 4 4 5 6
23 22 21 21 19 18 17 13 10 8 7 7 7 7 6 6 5 5 5 6 7 6 6 5 4 4 3 3 2 2 2 3 3 4 3 3 3 3 3 3 2 3 3 4 4 5 6 7 7
25 24 23 23 22 21 19 15 11 10 9 8 7 8 8 7 6 6 6 7 7 7 7 6 5 5 5 4 4 3 3 3 5 5 5 4 4 4 3 3 3 3 4 4 5 6 6 6 7
27 26 25 25 24 23 21 18 13 12 11 10 9 9 9 9 7 7 8 8 8 8 8 6 5 5 6 5 5 5 5 5 5 6 6 6 5 4 4 4 5 5 5 6 6 7 7 7 8
29 28 27 26 25 24 23 19 15 13 12 11 10 9 9 9 9 9 9 10 10 10 9 7 7 7 7 6 6 5 5 6 6 6 7 6 5 5 5 5 6 6 6 6 7 8 8 8 9
Wind_Direction
60 57 57 56 56 55 54 56 59 59 61 63 62 62 65 67 78 88 97 107 111 119 130 141 142 140 135 139 146 144 138 132 126 129 128 131 121 124 125 125 126 122 120 118 114 115 116 111 110
60 59 58 56 57 55 57 59 59 56 57 63 65 65 65 69 74 85 91 101 107 114 127 135 135 131 132 135 139 138 134 130 128 133 134 125 122 128 131 130 130 123 119 118 114 110 113 113 112
59 59 57 58 56 57 58 58 59 55 56 60 63 65 64 67 71 80 88 93 99 108 121 124 126 126 130 133 138 138 133 135 137 137 135 135 128 123 129 131 133 130 125 122 119 112 112 113 112
60 62 59 58 58 59 59 58 58 57 59 61 62 63 64 65 74 82 86 90 98 109 113 116 117 120 128 134 139 138 135 137 138 138 135 137 132 124 123 126 127 128 126 123 121 117 115 113 113
62 63 61 60 59 58 58 59 57 58 60 61 63 65 63 67 76 84 93 99 103 108 112 113 112 115 119 126 132 134 137 141 141 144 143 140 134 135 131 128 130 131 127 123 122 121 116 117 117
64 64 63 60 59 58 57 58 57 58 57 59 62 64 66 70 77 84 92 94 97 103 107 106 108 110 114 121 130 134 137 144 147 150 146 139 138 141 137 133 132 133 131 129 124 121 123 126 121
63 62 62 60 59 58 58 58 58 58 56 59 62 64 67 71 75 81 85 90 91 95 99 101 106 107 112 116 119 127 135 144 151 152 149 147 145 145 144 138 133 134 134 132 128 125 133 133 126
63 62 63 63 61 59 58 58 57 57 57 58 60 63 69 75 76 78 82 84 86 87 90 94 100 103 107 107 111 119 130 136 140 147 149 149 149 150 153 149 142 143 141 137 134 133 143 140 139
63 64 64 64 64 62 61 60 59 59 60 62 61 63 66 73 76 77 80 83 84 85 88 89 91 96 99 101 107 119 128 128 135 145 150 153 152 151 153 150 144 145 143 141 144 149 152 149 148
62 64 64 64 65 64 63 61 60 61 61 62 63 64 66 70 74 75 78 80 82 84 85 84 88 90 89 94 101 114 125 126 135 140 144 146 149 148 151 152 151 148 143 143 147 153 153 152 145
65 66 65 65 65 64 64 62 61 61 60 61 62 64 64 65 68 71 73 77 80 82 83 82 86 87 87 90 98 113 121 121 128 135 142 142 145 147 151 153 156 154 149 145 146 150 164 167 166
69 70 70 69 68 65 64 63 62 61 59 58 60 62 62 63 66 67 71 76 79 83 83 80 84 85 85 89 94 105 115 122 128 133 139 140 141 145 154 161 164 159 155 153 149 150 161 176 179
71 73 73 72 70 67 65 64 61 59 58 58 57 59 60 63 65 66 68 73 77 80 80 78 81 85 84 83 84 92 103 110 115 123 131 135 139 141 146 148 152 156 156 158 155 153 148 156 162
72 74 73 70 71 64 62 61 59 59 56 56 56 55 55 59 64 64 65 69 73 76 77 77 80 83 85 81 81 90 99 107 114 119 130 130 135 138 140 147 149 152 160 159 163 165 159 154 141
78 74 75 73 69 63 64 63 57 55 55 55 55 53 54 58 61 61 62 65 69 72 71 74 75 82 84 81 80 89 97 105 110 113 120 120 125 124 130 143 153 163 163 164 173 178 185 167 183
84 78 76 72 61 58 61 61 54 52 51 53 54 55 54 56 58 61 61 61 64 70 71 71 71 81 88 86 87 90 95 94 99 106 116 123 127 126 131 144 157 162 163 170 180 200 230 228 231
105 91 77 60 53 51 54 57 52 49 54 51 52 54 55 57 58 61 62 61 62 66 68 71 70 79 86 89 88 89 91 89 95 105 111 125 133 132 138 145 154 158 166 187 203 233 235 250 259
150 112 78 63 52 49 45 46 49 48 53 53 50 52 55 58 58 59 59 60 59 59 62 66 68 72 81 84 82 81 88 91 98 105 112 115 120 112 120 133 146 155 174 230 258 242 230 254 268
195 160 83 54 40 30 25 27 36 40 36 49 50 47 52 55 55 57 56 58 59 57 57 62 67 69 77 80 80 78 85 93 100 106 103 104 110 96 99 114 116 139 213 263 267 241 265 271 288
211 218 247 330 334 342 351 4 15 25 27 29 30 35 50 53 54 54 54 55 54 56 57 56 62 66 73 78 74 74 83 89 93 101 101 97 100 98 107 119 128 179 221 229 224 258 280 273 288
226 233 246 273 297 310 325 334 351 5 22 20 23 29 41 43 46 50 51 53 53 54 53 52 56 57 64 70 72 71 71 83 91 91 104 110 128 110 124 131 191 242 248 251 250 261 294 296 286
234 238 247 263 276 288 297 306 313 342 3 3 1 1 17 20 28 40 44 50 51 51 51 55 57 58 59 59 63 70 70 69 77 86 94 93 118 206 240 178 324 293 287 281 283 274 285 297 298
239 244 250 255 265 276 286 295 302 320 347 342 337 350 353 3 12 27 34 37 47 48 53 57 53 54 54 56 60 60 59 55 53 56 60 44 46 15 330 325 320 320 313 295 287 299 295 299 301
238 243 251 256 259 265 273 284 284 294 327 329 326 333 356 358 355 4 18 24 25 37 49 47 42 44 44 48 49 46 43 42 37 33 34 28 28 15 355 335 326 312 315 309 292 290 290 300 300
237 241 249 255 261 263 267 274 279 278 289 307 307 302 308 326 337 336 351 4 9 13 12 11 23 26 27 32 33 30 30 29 25 18 16 17 16 14 9 355 334 311 306 306 302 297 297 302 302
238 241 247 256 261 262 262 266 270 272 279 285 281 279 273 292 304 321 328 342 344 335 330 330 329 320 330 337 6 22 14 13 18 17 9 7 2 354 343 330 323 313 299 299 300 300 298 300 300
237 241 246 251 255 257 261 261 266 269 275 280 274 275 273 283 292 310 318 323 324 320 317 310 311 302 300 308 296 328 347 357 352 344 333 337 345 344 333 323 311 311 307 297 299 298 298 299 298
236 240 244 247 252 258 258 260 266 270 274 277 274 277 281 280 284 298 308 310 313 310 306 301 296 299 307 295 288 303 312 320 321 318 319 311 317 323 317 308 302 303 309 311 307 305 305 304 307
234 237 243 248 251 257 260 261 265 272 272 276 274 276 279 279 281 291 293 295 299 301 297 294 290 291 292 298 298 292 294 294 302 304 299 298 297 302 296 292 293 292 296 298 302 307 312 315 317
235 238 243 247 252 255 260 262 261 269 272 272 270 269 273 280 283 287 288 288 289 292 290 284 283 284 287 288 290 293 306 298 291 301 300 293 282 285 291 289 290 289 293 298 301 304 309 313 317
Height
5869 5867 5866 5866 5864 5862 5860 5859 5857 5856 5855 5854 5853 5853 5852 5853 5853 5855 5854 5853 5853 5854 5854 5854 5856 5857 5858 5859 5860 5862 5863 5864 5865 5866 5867 5868 5869 5869 5870 5872 5873 5874 5875 5876 5876 5877 5878 5879 5880
5871 5870 5870 5868 5865 5863 5862 5860 5858 5857 5857 5856 5854 5854 5853 5853 5853 5853 5853 5854 5854 5855 5855 5855 5856 5858 5859 5860 5861 5862 5863 5864 5865 5867 5868 5869 5870 5870 5872 5873 5874 5876 5877 5877 5878 5879 5880 5880 5881
5874 5873 5872 5870 5867 5866 5864 5862 5860 5859 5858 5857 5856 5855 5855 5854 5854 5854 5854 5855 5855 5856 5856 5856 5857 5858 5860 5861 5862 5863 5864 5865 5866 5867 5869 5870 5871 5871 5872 5874 5876 5877 5878 5879 5880 5881 5881 5882 5883
5877 5876 5874 5872 5870 5868 5866 5864 5862 5861 5860 5859 5858 5857 5856 5856 5855 5855 5856 5856 5857 5857 5857 5857 5858 5859 5860 5861 5862 5863 5864 5865 5867 5868 5869 5870 5872 5873 5874 5876 5877 5878 5879 5880 5881 5882 5883 5883 5884
5879 5877 5876 5874 5872 5871 5868 5866 5864 5863 5862 5861 5860 5859 5858 5858 5857 5857 5857 5858 5858 5858 5858 5859 5859 5860 5861 5862 5863 5863 5865 5866 5867 5869 5870 5871 5872 5874 5875 5876 5878 5879 5880 5881 5882 5883 5883 5884 5885
5881 5880 5878 5876 5875 5873 5870 5868 5866 5865 5864 5864 5863 5862 5861 5861 5860 5860 5860 5860 5860 5860 5860 5860 5861 5861 5862 5862 5863 5864 5865 5866 5868 5869 5871 5872 5873 5875 5876 5877 5879 5880 5881 5882 5883 5884 5885 5885 5886
5884 5882 5880 5878 5877 5875 5873 5871 5869 5868 5867 5866 5865 5864 5863 5863 5863 5862 5862 5862 5862 5861 5861 5862 5862 5863 5863 5863 5864 5865 5866 5867 5868 5870 5871 5873 5874 5875 5877 5878 5879 5881 5882 5883 5884 5885 5885 5886 5887
5886 5885 5883 5881 5879 5878 5876 5873 5872 5871 5870 5869 5868 5867 5866 5866 5865 5865 5864 5864 5864 5863 5863 5864 5864 5864 5864 5864 5865 5865 5867 5868 5869 5870 5872 5873 5874 5876 5877 5878 5880 5881 5882 5883 5884 5885 5886 5887 5887
5888 5888 5885 5884 5882 5881 5879 5877 5875 5874 5873 5872 5871 5870 5869 5868 5868 5867 5867 5866 5866 5866 5866 5866 5865 5866 5866 5865 5865 5866 5867 5869 5870 5871 5872 5873 5875 5876 5878 5879 5880 5882 5883 5884 5884 5885 5886 5887 5887
5890 5889 5888 5887 5885 5883 5882 5880 5879 5877 5876 5876 5874 5873 5872 5871 5870 5870 5869 5869 5868 5868 5868 5868 5867 5867 5867 5867 5867 5867 5868 5869 5870 5871 5873 5874 5876 5877 5879 5880 5881 5882 5883 5884 5885 5886 5886 5887 5887
5892 5891 5890 5889 5888 5886 5885 5883 5882 5881 5880 5879 5877 5876 5875 5874 5873 5873 5872 5871 5871 5870 5870 5870 5869 5869 5869 5869 5868 5869 5869 5870 5871 5872 5873 5875 5876 5878 5879 5881 5882 5883 5884 5885 5885 5886 5887 5887 5888
5894 5893 5892 5892 5891 5889 5888 5886 5885 5884 5883 5882 5880 5879 5878 5877 5876 5875 5874 5874 5873 5872 5872 5872 5871 5871 5871 5871 5870 5871 5871 5871 5872 5872 5874 5876 5877 5878 5880 5881 5882 5883 5884 5885 5886 5886 5887 5887 5888
5896 5895 5894 5894 5893 5892 5891 5890 5889 5887 5886 5885 5883 5882 5881 5880 5879 5878 5877 5876 5875 5875 5874 5874 5874 5873 5873 5873 5873 5872 5872 5872 5872 5873 5875 5876 5878 5879 5880 5881 5883 5884 5885 5886 5886 5887 5887 5888 5888
5898 5897 5896 5896 5895 5894 5893 5892 5892 5890 5889 5888 5887 5885 5884 5883 5882 5880 5879 5878 5877 5877 5876 5876 5876 5875 5875 5875 5874 5874 5874 5874 5874 5875 5876 5877 5879 5880 5881 5882 5883 5884 5885 5886 5886 5887 5888 5888 5888
5899 5899 5899 5898 5897 5896 5896 5895 5894 5893 5892 5891 5890 5888 5887 5885 5884 5883 5882 5881 5880 5879 5878 5878 5878 5877 5877 5877 5876 5876 5876 5876 5876 5876 5878 5879 5880 5881 5882 5883 5884 5884 5885 5886 5887 5887 5887 5888 5888
5901 5901 5901 5900 5899 5898 5900 5898 5897 5896 5895 5894 5893 5891 5890 5888 5887 5885 5884 5883 5882 5881 5880 5880 5879 5879 5879 5878 5878 5878 5878 5878 5878 5878 5879 5880 5881 5882 5883 5883 5884 5885 5885 5886 5886 5887 5887 5888 5888
5902 5902 5902 5902 5901 5900 5900 5900 5900 5898 5898 5897 5895 5894 5892 5891 5890 5888 5886 5885 5884 5883 5882 5881 5881 5880 5880 5880 5880 5880 5879 5879 5879 5880 5880 5881 5881 5882 5883 5884 5884 5885 5886 5886 5886 5887 5887 5887 5888
5903 5903 5903 5903 5902 5902 5902 5902 5901 5900 5900 5899 5898 5896 5895 5893 5892 5890 5889 5887 5886 5885 5884 5883 5882 5882 5882 5881 5881 5881 5881 5881 5881 5881 5881 5882 5882 5882 5883 5884 5885 5885 5886 5886 5886 5886 5887 5887 5887
5903 5903 5903 5903 5903 5903 5903 5903 5902 5901 5901 5900 5899 5898 5896 5895 5894 5892 5890 5889 5888 5887 5886 5885 5884 5883 5883 5883 5882 5882 5881 5882 5882 5882 5882 5882 5883 5883 5883 5884 5885 5885 5886 5886 5886 5886 5886 5886 5887
5902 5903 5903 5903 5903 5903 5903 5903 5903 5902 5902 5901 5901 5900 5898 5897 5895 5894 5892 5891 5890 5889 5888 5887 5886 5885 5885 5884 5884 5883 5883 5883 5883 5883 5883 5883 5883 5884 5884 5884 5885 5885 5885 5886 5886 5886 5886 5886 5886
5901 5903 5903 5903 5903 5903 5903 5904 5904 5903 5902 5902 5901 5900 5899 5898 5897 5895 5894 5892 5891 5890 5889 5888 5887 5887 5886 5885 5885 5885 5884 5884 5884 5884 5884 5884 5884 5884 5884 5885 5885 5885 5885 5885 5885 5885 5885 5885 5885
5900 5901 5902 5902 5903 5903 5903 5903 5904 5903 5903 5902 5901 5901 5900 5899 5898 5896 5895 5893 5892 5891 5890 5889 5889 5888 5887 5887 5886 5886 5886 5885 5885 5885 5885 5885 5885 5885 5884 5884 5885 5885 5884 5884 5884 5884 5884 5884 5884
5899 5899 5900 5901 5901 5902 5902 5902 5904 5902 5902 5902 5901 5901 5900 5899 5898 5897 5896 5894 5893 5892 5891 5890 5890 5889 5889 5888 5887 5887 5887 5886 5886 5886 5885 5885 5885 5885 5884 5884 5885 5884 5884 5884 5884 5884 5883 5883 5883
5896 5897 5898 5899 5900 5901 5901 5901 5902 5902 5902 5901 5901 5901 5900 5900 5899 5898 5896 5895 5894 5893 5892 5891 5890 5890 5889 5889 5888 5888 5888 5887 5887 5886 5886 5885 5885 5885 5884 5884 5884 5884 5884 5883 5883 5883 5883 5883 5882
5893 5895 5896 5896 5897 5898 5899 5899 5901 5901 5901 5901 5901 5900 5900 5899 5899 5898 5897 5896 5894 5893 5892 5892 5891 5890 5890 5889 5889 5888 5888 5888 5887 5887 5886 5886 5885 5885 5884 5884 5884 5884 5884 5884 5883 5883 5882 5882 5881
5889 5892 5894 5894 5895 5896 5896 5896 5899 5899 5900 5900 5899 5899 5899 5899 5898 5897 5896 5895 5894 5893 5892 5891 5891 5890 5890 5889 5889 5889 5888 5888 5887 5887 5886 5886 5885 5885 5884 5884 5884 5884 5884 5883 5883 5882 5882 5881 5881
5886 5888 5890 5891 5892 5893 5894 5895 5897 5897 5898 5898 5898 5898 5897 5897 5897 5896 5895 5894 5893 5892 5892 5891 5890 5890 5889 5889 5888 5888 5888 5887 5887 5886 5886 5885 5885 5884 5884 5883 5883 5883 5883 5882 5882 5882 5881 5880 5880
5882 5885 5886 5887 5888 5889 5891 5892 5895 5895 5896 5896 5896 5896 5895 5895 5895 5894 5894 5893 5892 5891 5891 5890 5889 5889 5889 5888 5887 5887 5887 5886 5886 5885 5885 5885 5884 5883 5883 5883 5882 5882 5882 5881 5881 5880 5880 5879 5878
5878 5880 5881 5883 5885 5886 5887 5892 5893 5893 5894 5894 5894 5894 5894 5893 5893 5893 5892 5891 5890 5890 5889 5888 5888 5887 5887 5886 5886 5886 5885 5885 5884 5884 5883 5883 5883 5882 5882 5882 5881 5881 5880 5880 5880 5879 5878 5877 5877
5872 5874 5877 5879 5881 5882 5884 5889 5889 5890 5891 5891 5891 5891 5891 5891 5891 5890 5889 5889 5888 5887 5887 5886 5886 5885 5885 5884 5884 5883 5883 5882 5882 5882 5881 5881 5881 5881 5880 5880 5880 5879 5879 5879 5878 5878 5877 5876 5876